Regional Weather Roundup
Issued by NWS

Home | Current Version | Previous Version | Text Only | Print | Product List | Glossary Off
Versions: 1 2 3 4 5 6 7 8 9 10 11 12 13 14 15 16 17 18 19 20 21 22 23 24 25 26 27 28 29 30 31 32 33 34 35 36 37 38 39 40 41 42 43 44 45 46 47 48 49 50

000
ASUS43 KBIS 280602
RWRND

NORTH DAKOTA REGIONAL WEATHER ROUNDUP
NATIONAL WEATHER SERVICE BISMARCK ND
100 AM CDT FRI APR 28 2017

NOTE: "FAIR" INDICATES FEW OR NO CLOUDS BELOW 12,000 FEET WITH NO
SIGNIFICANT WEATHER AND/OR OBSTRUCTIONS TO VISIBILITY.


NDZ001>003-009>011-017-280700-
NORTHWEST NORTH DAKOTA

CITY           SKY/WX    TMP DP  RH WIND       PRES   REMARKS
WILLISTON      FAIR      37  18  46 NE6       29.86R
6HR MIN TEMP:  36; 6HR MAX TEMP:  53;

MINOT          FAIR      30  25  81 N5        29.87R
MINOT AFB      CLEAR     35  26  71 NE3       29.87R
$$

NDZ018>021-031>035-040>046-280700-
SOUTHWEST NORTH DAKOTA

CITY           SKY/WX    TMP DP  RH WIND       PRES   REMARKS
BISMARCK       FAIR      33  25  72 NE6       29.87R
6HR MIN TEMP:  32; 6HR MAX TEMP:  53;

DICKINSON      FAIR      30  16  56 E8        29.81R
GARRISON         N/A     35  26  69 E7        29.86R
6HR MIN TEMP:  31; 6HR MAX TEMP:  50;

HETTINGER ARPT CLEAR     31  23  72 NE8       29.81S
$$

NDZ004>008-012>016-024-026-027-054-280700-
NORTHEAST NORTH DAKOTA

CITY           SKY/WX    TMP DP  RH WIND       PRES   REMARKS
GRAND FORKS    CLEAR     33  29  85 NW9       29.84R
GRND FRKS AFB  CLEAR     30  28  92 NW6       29.85R
DEVILS LAKE    FAIR      34  27  75 CALM      29.87R
$$

NDZ022-023-025-028>030-036>039-047>053-280700-
SOUTHEAST NORTH DAKOTA

CITY           SKY/WX    TMP DP  RH WIND       PRES   REMARKS
FARGO          CLEAR     33  27  78 N13       29.83R
6HR MIN TEMP:  33; 6HR MAX TEMP:  41;

JAMESTOWN      FAIR      35  31  85 NE8       29.84R
$$





USA.gov is the U.S. government's official web portal to all federal, state and local government web resources and services.